| time (UTC) | temp F | wind direction | speed MPH | gust MPH | rain 1hr in | rain 24hr in | rain mn in | humidity % | barometer mb |
| 20260508175017 | 73 | 0.0 | 0.0 | 0.00 | 0.00 | 0.00 | 46 | 1017.4 | |
| 20260508174017 | 72 | 270 | 1.0 | 4.0 | 0.00 | 0.00 | 0.00 | 43 | 1017.5 |
| 20260508173017 | 72 | 180 | 2.0 | 8.0 | 0.00 | 0.00 | 0.00 | 43 | 1017.6 |
| 20260508172017 | 72 | 293 | 3.0 | 9.0 | 0.00 | 0.00 | 0.00 | 44 | 1017.7 |
| 20260508171016 | 72 | 0.0 | 1.0 | 0.00 | 0.00 | 0.00 | 52 | 1017.9 | |
| 20260508170016 | 71 | 180 | 1.0 | 4.0 | 0.00 | 0.00 | 0.00 | 52 | 1018.1 |
| 20260508165017 | 70 | 180 | 1.0 | 4.0 | 0.00 | 0.00 | 0.00 | 52 | 1018.2 |
| 20260508164017 | 69 | 0.0 | 0.0 | 0.00 | 0.00 | 0.00 | 50 | 1018.2 | |
| 20260508163037 | 69 | 0 | 1.0 | 3.0 | 0.00 | 0.00 | 0.00 | 51 | 1018.4 |
| 20260508162016 | 69 | 203 | 2.0 | 3.0 | 0.00 | 0.00 | 0.00 | 55 | 1018.9 |
| 20260508161016 | 68 | 180 | 1.0 | 3.0 | 0.00 | 0.00 | 0.00 | 59 | 1019.2 |
| 20260508160036 | 68 | 180 | 1.0 | 5.0 | 0.00 | 0.00 | 0.00 | 60 | 1019.1 |
| 20260508155036 | 67 | 203 | 2.0 | 7.0 | 0.00 | 0.00 | 0.00 | 60 | 1019.2 |
| 20260508154017 | 66 | 0.0 | 1.0 | 0.00 | 0.00 | 0.00 | 62 | 1019.3 | |
| 20260508153016 | 65 | 0.0 | 0.0 | 0.00 | 0.00 | 0.00 | 66 | 1019.2 | |
| 20260508152016 | 64 | 0.0 | 0.0 | 0.00 | 0.00 | 0.00 | 63 | 1019.2 | |
| 20260508151036 | 63 | 0.0 | 0.0 | 0.00 | 0.00 | 0.00 | 70 | 1019.4 | |
| 20260508150016 | 61 | 0.0 | 0.0 | 0.00 | 0.00 | 0.00 | 72 | 1019.1 | |
| 20260508145036 | 60 | 0.0 | 0.0 | 0.00 | 0.00 | 0.00 | 77 | 1019.2 | |
| 20260508144016 | 60 | 0.0 | 0.0 | 0.00 | 0.00 | 0.00 | 77 | 1019.2 | |
| 20260508143017 | 59 | 0.0 | 0.0 | 0.00 | 0.00 | 0.00 | 79 | 1019.1 | |
| 20260508142016 | 58 | 0.0 | 0.0 | 0.00 | 0.00 | 0.00 | 86 | 1019.0 | |
| 20260508141016 | 57 | 0.0 | 0.0 | 0.00 | 0.00 | 0.00 | 87 | 1019.0 | |
| 20260508140016 | 56 | 0.0 | 0.0 | 0.00 | 0.00 | 0.00 | 88 | 1019.0 | |
| 20260508135016 | 55 | 0.0 | 0.0 | 0.00 | 0.00 | 0.00 | 89 | 1019.0 | |
| 20260508134036 | 54 | 0.0 | 0.0 | 0.00 | 0.03 | 0.00 | 91 | 1019.2 | |
| 20260508133016 | 54 | 0.0 | 0.0 | 0.00 | 0.04 | 0.00 | 92 | 1019.1 | |
| 20260508132017 | 53 | 0.0 | 0.0 | 0.00 | 0.04 | 0.00 | 95 | 1019.2 | |
| 20260508131036 | 52 | 0.0 | 0.0 | 0.00 | 0.04 | 0.00 | 94 | 1019.2 | |
| 20260508130016 | 52 | 0.0 | 0.0 | 0.00 | 0.05 | 0.00 | 95 | 1019.1 | |
| 20260508125056 | 51 | 0.0 | 0.0 | 0.00 | 0.07 | 0.00 | 96 | 1018.9 | |
| 20260508124016 | 51 | 0.0 | 0.0 | 0.00 | 0.07 | 0.00 | 96 | 1018.8 | |
| 20260508123016 | 51 | 0.0 | 0.0 | 0.00 | 0.07 | 0.00 | 96 | 1019.0 | |
| 20260508122016 | 50 | 0.0 | 0.0 | 0.00 | 0.11 | 0.00 | 96 | 1018.8 | |
| 20260508121016 | 50 | 0.0 | 0.0 | 0.00 | 0.13 | 0.00 | 96 | 1018.7 | |
| 20260508120015 | 49 | 0.0 | 0.0 | 0.00 | 0.19 | 0.00 | 96 | 1018.6 | |
| 20260508115015 | 48 | 0.0 | 0.0 | 0.00 | 0.23 | 0.00 | 96 | 1017.9 | |
| 20260508114016 | 48 | 0.0 | 0.0 | 0.00 | 0.27 | 0.00 | 95 | 1017.8 | |
| 20260508113016 | 48 | 0.0 | 0.0 | 0.00 | 0.27 | 0.00 | 95 | 1017.3 | |
| 20260508112036 | 47 | 0.0 | 0.0 | 0.00 | 0.28 | 0.00 | 95 | 1017.3 | |
| 20260508111037 | 47 | 0.0 | 0.0 | 0.00 | 0.29 | 0.00 | 95 | 1017.3 | |
| 20260508110015 | 47 | 0.0 | 0.0 | 0.00 | 0.35 | 0.00 | 94 | 1017.2 | |
| 20260508105015 | 47 | 0.0 | 0.0 | 0.00 | 0.44 | 0.00 | 95 | 1017.0 | |
| 20260508104015 | 47 | 0.0 | 0.0 | 0.00 | 0.51 | 0.00 | 94 | 1016.9 | |
| 20260508103035 | 48 | 0.0 | 0.0 | 0.00 | 0.54 | 0.00 | 95 | 1016.7 | |
| 20260508102015 | 48 | 0.0 | 0.0 | 0.00 | 0.54 | 0.00 | 95 | 1016.4 | |
| 20260508101015 | 48 | 0.0 | 0.0 | 0.00 | 0.55 | 0.00 | 94 | 1016.3 | |
| 20260508100036 | 48 | 0.0 | 0.0 | 0.00 | 0.57 | 0.00 | 94 | 1016.4 | |
| 20260508095015 | 48 | 0.0 | 0.0 | 0.00 | 0.58 | 0.00 | 94 | 1016.2 | |
| 20260508094017 | 48 | 0.0 | 0.0 | 0.00 | 0.59 | 0.00 | 94 | 1016.2 | |
| 20260508093017 | 49 | 0.0 | 0.0 | 0.00 | 0.59 | 0.00 | 94 | 1016.2 | |
| 20260508092017 | 49 | 0.0 | 0.0 | 0.00 | 0.59 | 0.00 | 94 | 1016.2 | |
| 20260508091138 | 49 | 0.0 | 0.0 | 0.00 | 0.59 | 0.00 | 94 | 1016.0 | |
| 20260508090017 | 50 | 0.0 | 0.0 | 0.00 | 0.59 | 0.00 | 94 | 1015.8 | |
| 20260508085018 | 50 | 0.0 | 0.0 | 0.00 | 0.59 | 0.00 | 94 | 1016.0 | |
| 20260508084017 | 50 | 0.0 | 0.0 | 0.00 | 0.59 | 0.00 | 94 | 1015.8 | |
| 20260508083017 | 50 | 0.0 | 0.0 | 0.00 | 0.59 | 0.00 | 94 | 1015.6 | |
| 20260508082017 | 50 | 0.0 | 0.0 | 0.00 | 0.59 | 0.00 | 94 | 1015.5 | |
| 20260508081017 | 51 | 0.0 | 0.0 | 0.00 | 0.59 | 0.00 | 94 | 1015.6 | |
| 20260508080037 | 51 | 0.0 | 0.0 | 0.00 | 0.60 | 0.00 | 94 | 1015.7 | |
| 20260508075017 | 51 | 0.0 | 0.0 | 0.00 | 0.61 | 0.00 | 94 | 1015.7 | |
| 20260508074017 | 51 | 0.0 | 0.0 | 0.00 | 0.62 | 0.00 | 94 | 1015.6 | |
| 20260508073038 | 51 | 0.0 | 0.0 | 0.00 | 0.63 | 0.00 | 94 | 1015.8 | |
| 20260508072017 | 51 | 0.0 | 0.0 | 0.00 | 0.63 | 0.00 | 94 | 1015.7 | |
| 20260508071017 | 52 | 0.0 | 0.0 | 0.00 | 0.63 | 0.00 | 94 | 1015.9 | |
| 20260508070017 | 52 | 0.0 | 0.0 | 0.00 | 0.63 | 0.00 | 94 | 1015.9 | |
| 20260508065037 | 52 | 0.0 | 0.0 | 0.00 | 0.63 | 0.00 | 94 | 1015.9 | |
| 20260508064017 | 52 | 0.0 | 0.0 | 0.00 | 0.63 | 0.00 | 94 | 1016.0 | |
| 20260508063037 | 52 | 0.0 | 0.0 | 0.00 | 0.63 | 0.00 | 94 | 1016.1 | |
| 20260508062017 | 52 | 0.0 | 0.0 | 0.00 | 0.64 | 0.00 | 94 | 1016.2 | |
| 20260508061016 | 53 | 0.0 | 0.0 | 0.00 | 0.65 | 0.00 | 93 | 1016.2 | |
| 20260508060017 | 53 | 0.0 | 0.0 | 0.00 | 0.66 | 0.00 | 94 | 1016.3 | |
| 20260508055016 | 53 | 0.0 | 0.0 | 0.00 | 0.67 | 0.00 | 94 | 1016.2 | |
| 20260508054017 | 53 | 0.0 | 0.0 | 0.00 | 0.68 | 0.00 | 94 | 1016.1 | |
| 20260508053017 | 53 | 0.0 | 0.0 | 0.00 | 0.69 | 0.00 | 94 | 1016.2 | |
| 20260508052017 | 53 | 0.0 | 0.0 | 0.00 | 0.70 | 0.00 | 94 | 1016.2 | |
| 20260508051017 | 54 | 0.0 | 0.0 | 0.00 | 0.72 | 0.00 | 94 | 1016.3 | |
| 20260508050016 | 54 | 0.0 | 0.0 | 0.00 | 0.74 | 0.00 | 94 | 1016.3 | |
| 20260508045036 | 54 | 0.0 | 0.0 | 0.00 | 0.81 | 0.00 | 94 | 1016.2 | |
| 20260508044017 | 54 | 0.0 | 0.0 | 0.00 | 0.85 | 0.00 | 93 | 1016.2 | |
| 20260508043016 | 54 | 0.0 | 0.0 | 0.00 | 0.92 | 0.00 | 93 | 1016.1 | |
| 20260508042016 | 54 | 0.0 | 0.0 | 0.00 | 1.05 | 0.00 | 93 | 1016.1 | |
| 20260508041037 | 54 | 0.0 | 0.0 | 0.00 | 1.12 | 0.00 | 93 | 1015.8 | |
| 20260508040016 | 54 | 0.0 | 0.0 | 0.00 | 1.13 | 1.13 | 93 | 1015.9 | |
| 20260508035036 | 55 | 0.0 | 0.0 | 0.00 | 1.13 | 1.13 | 93 | 1016.1 | |
| 20260508034016 | 55 | 0.0 | 0.0 | 0.00 | 1.14 | 1.13 | 93 | 1016.0 | |
| 20260508033016 | 55 | 0.0 | 0.0 | 0.00 | 1.15 | 1.13 | 93 | 1016.0 | |
| 20260508032036 | 55 | 0.0 | 0.0 | 0.00 | 1.17 | 1.13 | 92 | 1016.0 | |
| 20260508031016 | 55 | 0.0 | 0.0 | 0.00 | 1.21 | 1.13 | 92 | 1015.9 | |
| 20260508030017 | 55 | 0.0 | 0.0 | 0.00 | 1.26 | 1.13 | 92 | 1015.6 | |
| 20260508025036 | 55 | 0.0 | 0.0 | 0.00 | 1.30 | 1.13 | 92 | 1015.7 | |
| 20260508024016 | 56 | 0.0 | 0.0 | 0.00 | 1.38 | 1.13 | 92 | 1015.6 | |
| 20260508023016 | 56 | 0.0 | 0.0 | 0.00 | 1.46 | 1.13 | 91 | 1015.6 | |
| 20260508022016 | 56 | 0.0 | 0.0 | 0.00 | 1.51 | 1.13 | 91 | 1015.7 | |
| 20260508021016 | 56 | 0.0 | 0.0 | 0.00 | 1.52 | 1.13 | 90 | 1015.7 | |
| 20260508020037 | 57 | 0.0 | 0.0 | 0.00 | 1.62 | 1.13 | 90 | 1015.5 | |
| 20260508015016 | 57 | 0.0 | 0.0 | 0.00 | 1.65 | 1.13 | 90 | 1015.4 | |
| 20260508014016 | 57 | 0.0 | 0.0 | 0.00 | 1.68 | 1.13 | 89 | 1015.2 | |
| 20260508013016 | 58 | 0.0 | 0.0 | 0.00 | 1.71 | 1.13 | 89 | 1015.0 | |
| 20260508012016 | 58 | 0.0 | 0.0 | 0.00 | 1.75 | 1.13 | 88 | 1015.1 | |
| 20260508011016 | 58 | 0.0 | 0.0 | 0.00 | 1.77 | 1.13 | 88 | 1015.0 | |
| 20260508010017 | 58 | 0.0 | 0.0 | 0.00 | 1.78 | 1.13 | 87 | 1014.9 | |
| 20260508005017 | 59 | 0.0 | 0.0 | 0.00 | 1.81 | 1.13 | 86 | 1014.9 | |
| 20260508004016 | 59 | 0.0 | 0.0 | 0.00 | 1.81 | 1.13 | 86 | 1014.8 | |
| 20260508003016 | 60 | 0.0 | 0.0 | 0.00 | 1.81 | 1.13 | 86 | 1014.7 | |
| 20260508002015 | 60 | 0.0 | 0.0 | 0.00 | 1.81 | 1.13 | 84 | 1014.7 | |
| 20260508001016 | 61 | 0.0 | 0.0 | 0.00 | 1.84 | 1.13 | 82 | 1014.6 | |
| 20260508000016 | 61 | 0.0 | 0.0 | 0.00 | 1.84 | 1.13 | 81 | 1014.4 | |
| 20260507235016 | 62 | 0.0 | 0.0 | 0.00 | 1.84 | 1.13 | 80 | 1014.4 | |
| 20260507234016 | 62 | 0.0 | 0.0 | 0.00 | 1.87 | 1.13 | 80 | 1014.4 | |
| 20260507233016 | 63 | 0.0 | 1.0 | 0.00 | 1.90 | 1.13 | 77 | 1014.3 | |
| 20260507232016 | 63 | 0.0 | 0.0 | 0.00 | 2.04 | 1.13 | 77 | 1014.1 | |
| 20260507231015 | 64 | 0.0 | 2.0 | 0.00 | 2.38 | 1.13 | 77 | 1014.3 | |
| 20260507230016 | 65 | 90 | 1.0 | 3.0 | 0.00 | 2.39 | 1.13 | 76 | 1014.2 |
| 20260507225015 | 65 | 0 | 1.0 | 4.0 | 0.00 | 2.39 | 1.13 | 74 | 1014.1 |
| 20260507224016 | 66 | 0 | 1.0 | 4.0 | 0.00 | 2.39 | 1.13 | 74 | 1014.2 |
| 20260507223016 | 66 | 203 | 1.0 | 7.0 | 0.00 | 2.39 | 1.13 | 74 | 1014.1 |
| 20260507222056 | 66 | 0 | 2.0 | 6.0 | 0.00 | 2.39 | 1.13 | 73 | 1013.9 |
| 20260507221015 | 67 | 0 | 2.0 | 7.0 | 0.00 | 2.39 | 1.13 | 73 | 1014.0 |
| 20260507220015 | 67 | 0 | 1.0 | 5.0 | 0.00 | 2.39 | 1.13 | 74 | 1013.9 |
| 20260507215015 | 66 | 0 | 1.0 | 3.0 | 0.00 | 2.39 | 1.13 | 74 | 1013.6 |
| 20260507214015 | 66 | 248 | 1.0 | 7.0 | 0.00 | 2.39 | 1.13 | 73 | 1013.7 |
| 20260507213017 | 66 | 0 | 3.0 | 10.0 | 0.00 | 2.39 | 1.13 | 74 | 1013.5 |
| 20260507212018 | 66 | 225 | 2.0 | 7.0 | 0.00 | 2.39 | 1.13 | 74 | 1013.5 |
| 20260507211017 | 67 | 0 | 1.0 | 6.0 | 0.00 | 2.39 | 1.13 | 72 | 1013.2 |
| 20260507210017 | 68 | 203 | 1.0 | 9.0 | 0.00 | 2.39 | 1.13 | 72 | 1013.3 |
| 20260507205037 | 68 | 225 | 1.0 | 5.0 | 0.00 | 2.39 | 1.13 | 72 | 1013.2 |
| 20260507204017 | 69 | 180 | 3.0 | 7.0 | 0.00 | 2.39 | 1.13 | 70 | 1013.3 |
| 20260507203017 | 68 | 225 | 3.0 | 9.0 | 0.00 | 2.39 | 1.13 | 72 | 1013.2 |
| 20260507202017 | 67 | 203 | 3.0 | 7.0 | 0.00 | 2.39 | 1.13 | 76 | 1013.2 |
| 20260507201039 | 67 | 225 | 2.0 | 6.0 | 0.00 | 2.39 | 1.13 | 77 | 1013.4 |
| 20260507200017 | 66 | 203 | 3.0 | 10.0 | 0.00 | 2.39 | 1.13 | 75 | 1013.2 |
| 20260507195017 | 67 | 203 | 3.0 | 8.0 | 0.00 | 2.39 | 1.13 | 77 | 1013.2 |
| 20260507193017 | 67 | 0 | 1.0 | 6.0 | 0.00 | 2.39 | 1.13 | 79 | 1013.2 |
| 20260507192017 | 68 | 0.0 | 4.0 | 0.00 | 2.39 | 1.13 | 78 | 1013.3 | |
| 20260507191017 | 69 | 225 | 1.0 | 5.0 | 0.00 | 2.39 | 1.13 | 79 | 1013.3 |
| 20260507190017 | 68 | 225 | 3.0 | 7.0 | 0.00 | 2.39 | 1.13 | 79 | 1013.3 |
| 20260507185038 | 67 | 225 | 4.0 | 11.0 | 0.00 | 2.39 | 1.13 | 77 | 1013.5 |
| 20260507184017 | 67 | 203 | 2.0 | 7.0 | 0.00 | 2.39 | 1.13 | 82 | 1013.5 |
| 20260507183017 | 66 | 180 | 2.0 | 6.0 | 0.00 | 2.39 | 1.13 | 81 | 1013.6 |
| 20260507182017 | 66 | 203 | 3.0 | 10.0 | 0.00 | 2.39 | 1.13 | 81 | 1013.8 |
| 20260507181017 | 66 | 203 | 2.0 | 7.0 | 0.00 | 2.39 | 1.13 | 83 | 1013.8 |
| 20260507180017 | 66 | 248 | 2.0 | 4.0 | 0.00 | 2.39 | 1.13 | 84 | 1013.6 |